{"data":{"norad_id":68697,"intl_designator":"2026-080G","name":"JILIN GAOFEN OBJECT G","alt_names":[],"object_type":"PAYLOAD","status":"ACTIVE","operator":null,"country":"PRC","launch_date":"2026-04-14","launch_site_code":"JSC","launch_vehicle":null,"mission":null,"orbit_class":"UNKNOWN","rcs_meters":null,"size_class":null,"mass_kg":null,"dimensions":null,"purposes":[],"wikipedia_slug":null,"has_3d_model":false,"image_url":null,"decayed_at":null,"tle_current":{"epoch":"2026-09-20T04:45:59.361408Z","epoch_age_seconds":89202,"freshness":"FRESH","line1":"1 68697U 26080G   26263.19860372  .00002683  00000+0  17665-3 0  9993","line2":"2 68697  97.6587 338.7104 0015478 102.9172 257.3785 15.08314182 23952","mean_motion":15.08314182,"eccentricity":0.0015478,"inclination_deg":97.6587,"raan_deg":338.7104,"arg_perigee_deg":102.9172,"mean_anomaly_deg":257.3785,"bstar":0.00017665,"rev_number":2395,"period_min":95.470825454322,"perigee_km":530.64108749232,"apogee_km":552.06105476531,"semimajor_km":6919.4880711288,"source":"CELESTRAK","updated_at":"2026-09-20T09:00:24.409724Z"}}}